Location: La Pernelle
(49.6188°N, 1.2999°W)
Time: 07:29:23
(UTC+00:00)

Cosmos 2228 - Pass Details

Date: 12 June 2021
Orbit: 588 x 618 km, 82.5° (Epoch: 26 July)

Event Time Altitude Azimuth Distance (km) Brightness Sun altitude
Rises 23:40:21 0° 346° (NNW) 2,900 8.2 -17.0°
Reaches altitude 10° 23:42:37 10° 341° (NNW) 1,992 6.9 -17.0°
Maximum altitude 23:46:54 52° 266° (W) 777 3.5 -17.1°
Enters shadow 23:48:48 30° 205° (SSW) 1,124 3.9 -17.1°
